Regional Weather Roundup
Issued by NWS

Home | Current Version | Previous Version | Text Only | Print | Product List | Glossary On
Versions: 1 2 3 4 5 6 7 8 9 10 11 12 13 14 15 16 17 18 19 20 21 22 23 24 25 26 27 28 29 30 31 32 33 34 35 36 37 38 39 40 41 42 43 44 45 46 47 48 49 50
000
ASUS43 KDTX 280210
RWRMI
MICHIGAN HOURLY REGIONAL WEATHER ROUNDUP
NATIONAL WEATHER SERVICE DETROIT/PONTIAC MI
900 PM EST FRI FEB 27 2015

NOTE: "FAIR" INDICATES FEW OR NO CLOUDS BELOW 12,000 FEET WITH NO
SIGNIFICANT WEATHER AND/OR OBSTRUCTION TO VISIBILITY.

MIZ047>049-052>055-059>063-066>070-074>076-081>083-280300-
SOUTHEAST LOWER MICHIGAN

CITY           SKY/WX    TMP DP  RH WIND       PRES   REMARKS
ADRIAN         CLEAR      6  -4  63 W3        30.62R
ALMA           CLEAR     10   1  65 SW5       30.58R WCI   2
ANN ARBOR      CLEAR      2  -5  72 W3        30.60R
BAD AXE        CLEAR      7  -2  67 SW6       30.56R WCI  -3
CARO           CLEAR      3  -4  71 CALM      30.57R
DETROIT CITY   CLEAR     13  -2  51 SW5       30.61R WCI   5
DETROIT        PTCLDY    10  -3  55 S8        30.63R WCI  -2
FLINT          CLEAR     12  -2  53 SW6       30.58R WCI   3
GROSSE ILE     CLEAR      1  -6  71 SW3       30.61R
HILLSDALE      CLEAR     10  -2  59 SW3       30.57S
HOWELL         CLEAR     10  -3  55 SW3       30.57R

CITY           SKY/WX    TMP DP  RH WIND       PRES   REMARKS
JACKSON        CLEAR      7  -1  70 SW3       30.58R
LAMBERTVILLE   CLEAR     12  -2  52 CALM      30.64R
LANSING        CLEAR     11   2  67 SW7       30.59R WCI   0
LAPEER         FAIR       3  -6  67 CALM      30.57R
MASON          CLEAR      5  -3  69 CALM      30.58R
MONROE         CLEAR      7  -4  61 CALM      30.62R
MT. CLEMENS    CLEAR      5  -2  71 SW2       30.59R
PONTIAC        PTCLDY    10  -2  58 SW3       30.56R
PORT HOPE        N/A     11  -2  56 VRB6      30.54R WCI   1
PORT HURON     CLEAR      5  -2  72 S3        30.60S
TRI CITIES     CLEAR     12   2  64 SW8       30.58R WCI   0
TROY           CLEAR     15  -1  49 SW5       30.62R WCI   7
SAGINAW HB     CLEAR     12   3  67 SW9       30.58R WCI   0
$$
MIZ043>046-050>051-056>058-064>065-071>073-077>080-280300-
SOUTHWEST LOWER MICHIGAN

CITY           SKY/WX    TMP DP  RH WIND       PRES   REMARKS
BATTLE CREEK   CLEAR      8  -4  58 SW6       30.59R WCI  -2
BENTON HARBOR  CLEAR      9  -1  64 S6        30.63R WCI  -1
BIG RAPIDS     CLEAR      6  -1  73 CALM      30.54R
COLDWATER      CLEAR      8  -2  64 SW5       30.60S WCI  -1
FREMONT        FAIR       9   0  65 S3        30.57R
HOLLAND        CLEAR      8  -1  66 SW5       30.61R WCI   0
GRAND RAPIDS   CLEAR     11   1  64 SW9       30.59R WCI  -2
IONIA          FAIR      10   2  72 W7        30.57S WCI  -2
KALAMAZOO      CLEAR      8  -3  61 SW5       30.60R WCI   0
LUDINGTON      PTCLDY    18   8  63 SW9       30.55S WCI   7
MARSHALL       CLEAR      3  -3  75 CALM      30.59R
MOUNT PLEASANT CLEAR     11   1  61 SW5       30.56R WCI   3
MUSKEGON       MOCLDY    16   4  59 SW9       30.59R WCI   4
SOUTH HAVEN    CLEAR      5  -1  74 SW3       30.62R
$$
MIZ016>042-280300-
NORTHERN LOWER MICHIGAN

CITY           SKY/WX    TMP DP  RH WIND       PRES   REMARKS
ALPENA         CLEAR      0  -7  72 W3        30.51R
BEAVER ISLAND  CLEAR     12   4  71 SW7       30.47S WCI   1
BELLAIRE       CLOUDY    11   3  70 CALM      30.52S
CADILLAC       CLEAR      2  -4  75 SW7       30.47R WCI -10
CHARLEVOIX     MOCLDY    13   4  69 CALM      30.52S
FRANKFORT      MOCLDY    18   8  67 W9        30.51S WCI   6
GAYLORD        MOCLDY     6   1  80 SW10      30.44R WCI  -9
GRAYLING       CLEAR     -2  -7  81 CALM      30.49R
HARBOR SPRINGS CLOUDY    11   4  73 SW3       30.48S
HOUGHTON LAKE  CLEAR      5  -5  63 SW6       30.50R WCI  -6
MANISTEE       MOCLDY    10   1  67 S3        30.54R
OSCODA         CLEAR      9  -1  63 SW6       30.52R WCI  -1
PELLSTON       PTCLDY     7   2  80 S3        30.49R
ROGERS CITY    CLEAR      3  -1  81 SW3       30.51R
TRAVERSE CITY  PTCLDY    11   2  67 S5        30.51R WCI   3
$$
MIZ007>008-015-280300-
EASTERN UPPER MICHIGAN

CITY           SKY/WX    TMP DP  RH WIND       PRES   REMARKS
KINROSS        CLEAR      3   1  92 S3        30.45S
MACKINAC ISLAN CLEAR      7   0  72 SW7       30.47R WCI  -5
NEWBERRY       CLEAR      3  -1  82 S6        30.42S WCI  -8
S. S. MARIE    CLEAR      5  -4  66 SW3       30.45S
MUNISING         N/A      9  -1  64 S8        30.42F WCI  -3
$$
MIZ004>006-011>014-085-280300-
CENTRAL UPPER MICHIGAN

CITY           SKY/WX    TMP DP  RH WIND       PRES   REMARKS
MANISTIQUE     CLEAR     16   3  56 SW7       30.44S WCI   6
ESCANABA       CLEAR     12   0  57 SW8       30.46R WCI   1
MENOMINEE      CLEAR     12  -6  44 W6        30.49R WCI   3
SAWYER-GWINN   CLEAR      1  -4  78 CALM      30.37R
$$
MIZ001>003-009>011-084-280300-
WESTERN UPPER MICHIGAN

CITY           SKY/WX    TMP DP  RH WIND       PRES   REMARKS
IRON MOUNTAIN  CLEAR     13  -6  42 W5        30.40R WCI   5
HOUGHTON       CLEAR      8  -9  45 W12       30.35R WCI  -7
COPPER HARBOR    N/A      6  -7  54 CALM      30.38R
IRONWOOD       CLEAR     10  -9  40 SW9       30.38R WCI  -2
$$

ABBREVIATIONS USED IN REMARKS
   TC - TEMPERATURE IN CELSIUS
  WCI - WIND CHILL INDEX
   HX - HEAT INDEX
  VSB - VISIBILITY




USA.gov is the U.S. government's official web portal to all federal, state and local government web resources and services.